Elkins, WV

10:11 AM EST on February 25, 2017 (GMT -0500)
Elkins-Randolph County

Weather History for KEKN - February, 2014

Change the Weather History Date:

Thursday, February 13, 2014

  Actual Average Record
Temperature  
Mean Temperature 28 °F 32 °F  
Max Temperature 30 °F 42 °F 65 °F (1938)
Min Temperature 25 °F 21 °F -11 °F (1983)
Degree Days  
Heating Degree Days 37 33  
Month to date heating degree days 486 445  
Since 1 July heating degree days 3989 3846  
Cooling Degree Days 0 0  
Month to date cooling degree days 0 0  
Year to date cooling degree days 0 0  
Moisture  
Dew Point 24 °F    
Average Humidity 82    
Maximum Humidity 92    
Minimum Humidity 72    
Precipitation  
Precipitation 0.52 in 0.11 in 1.11 in (1971)
Month to date precipitation 2.81 1.39  
Year to date precipitation 4.96 4.62  
Snow  
Snow 16.30 in - - ()
Month to date snowfall 21.7  
Since 1 September snowfall 60.9  
Snow Depth 12.00 in    
Sea Level Pressure  
Sea Level Pressure 29.69 in    
Wind  
Wind Speed 6 mph (NW)    
Max Wind Speed 16 mph    
Max Gust Speed 26 mph    
Visibility 3 miles    
Events Snow    
T = Trace of Precipitation, MM = Missing Value Source: NWS Daily Summary

Daily Weather History Graph

Daily Weather History Graph

Search for Another Location

Airport or City:

Trip Planner

Search our weather history database for the weather conditions in past years. The results will help you decide how hot, cold, wet, or windy it might be!

Date:

Astronomy

Feb. 13, 2014 Rise Set
Actual Time 7:13 AM EST 5:54 PM EST
Civil Twilight 6:45 AM EST 6:22 PM EST
Nautical Twilight 6:14 AM EST 6:53 PM EST
Astronomical Twilight 5:43 AM EST 7:24 PM EST
Moon 5:01 PM EST (2/13) 6:05 AM EST (2/13)
Length of Visible Light 11h 36m
Length of Day
10h 41m
Waxing Gibbous, 98% of the Moon is Illuminated
Feb 13
Waxing Gibbous
Feb 14
Full
Feb 22
Last Quarter
Mar 1
New
Mar 8
First Quarter

Hourly Weather History & Observations

Time (EST) Temp. Windchill Dew Point Humidity Pressure Visibility Wind Dir Wind Speed Gust Speed Precip Events Conditions
12:51 AM 25.0 °F 18.1 °F 21.9 °F 88% 30.03 in 2.0 mi WNW 5.8 mph - 0.04 in Snow Light Snow
1:07 AM 25.0 °F 19.3 °F 21.9 °F 88% 29.94 in 3.0 mi NW 4.6 mph - 0.01 in Snow Light Snow
1:20 AM 25.0 °F 18.1 °F 21.9 °F 88% 29.93 in 2.5 mi WNW 5.8 mph - 0.01 in Snow Light Snow
1:32 AM 25.0 °F 17.1 °F 21.9 °F 88% 29.93 in 2.0 mi WNW 6.9 mph - 0.02 in Snow Light Snow
1:45 AM 26.6 °F 20.0 °F 23.0 °F 86% 29.92 in 3.0 mi Variable 5.8 mph - 0.02 in Snow Light Snow
1:51 AM 26.1 °F - 23.0 °F 88% 29.99 in 4.0 mi Calm Calm - 0.02 in Snow Light Snow
2:11 AM 28.0 °F 20.0 °F 24.1 °F 85% 29.90 in 2.5 mi North 8.1 mph - 0.01 in Snow Light Snow
2:22 AM 28.0 °F 20.0 °F 24.1 °F 85% 29.89 in 3.0 mi North 8.1 mph - 0.01 in Snow Light Snow
2:30 AM 28.0 °F 20.0 °F 24.1 °F 85% 29.88 in 2.0 mi North 8.1 mph - 0.01 in Snow Light Snow
2:37 AM 28.0 °F 20.0 °F 24.1 °F 85% 29.87 in 1.8 mi North 8.1 mph - 0.02 in Snow Light Snow
2:51 AM 28.0 °F 20.0 °F 24.1 °F 85% 29.93 in 1.5 mi North 8.1 mph - 0.03 in Snow Light Snow
3:51 AM 27.0 °F 21.6 °F 24.1 °F 89% 29.88 in 1.0 mi NNW 4.6 mph - 0.06 in Snow Light Snow
4:51 AM 27.0 °F 20.5 °F 24.1 °F 89% 29.83 in 2.0 mi North 5.8 mph - 0.06 in Snow Light Snow
4:59 AM 27.0 °F 18.7 °F 24.1 °F 89% 29.75 in 2.5 mi North 8.1 mph - 0.00 in Snow Light Snow
5:08 AM 27.0 °F 23.0 °F 24.1 °F 89% 29.75 in 3.0 mi Variable 3.5 mph - 0.01 in Snow Light Snow
5:43 AM 27.0 °F 19.5 °F 23.0 °F 85% 29.73 in 2.5 mi NNW 6.9 mph - 0.02 in Snow Light Snow
5:51 AM 27.0 °F 23.0 °F 23.0 °F 85% 29.80 in 3.0 mi Variable 3.5 mph - 0.02 in Snow Light Snow
6:10 AM 27.0 °F - 24.1 °F 89% 29.72 in 4.0 mi Calm Calm - 0.01 in Snow Light Snow
6:36 AM 27.0 °F 23.0 °F 24.1 °F 89% 29.71 in 6.0 mi West 3.5 mph - 0.01 in Snow Light Snow
6:49 AM 26.6 °F 22.6 °F 24.8 °F 93% 29.71 in 2.5 mi West 3.5 mph - 0.01 in Snow Light Snow
6:50 AM 27.0 °F 23.0 °F 24.1 °F 89% 29.79 in 2.5 mi West 3.5 mph - 0.02 in Snow Light Snow
7:05 AM 27.0 °F 21.6 °F 24.1 °F 89% 29.71 in 1.5 mi WNW 4.6 mph - 0.01 in Snow Light Snow
7:21 AM 27.0 °F - 25.0 °F 92% 29.70 in 1.5 mi Calm Calm - 0.02 in Snow Light Snow
7:34 AM 28.0 °F 24.2 °F 25.0 °F 88% 29.70 in 2.0 mi West 3.5 mph - 0.03 in Snow Light Snow
7:47 AM 28.4 °F 24.6 °F 24.8 °F 86% 29.70 in 1.8 mi West 3.5 mph - 0.04 in Snow Light Snow
7:51 AM 28.0 °F - 25.0 °F 88% 29.78 in 1.8 mi Calm Calm - 0.04 in Snow Light Snow
8:32 AM 28.0 °F 22.8 °F 25.0 °F 88% 29.69 in 2.0 mi North 4.6 mph - 0.02 in Snow Light Snow
8:36 AM 28.0 °F 21.7 °F 25.0 °F 88% 29.69 in 1.8 mi North 5.8 mph - 0.02 in Snow Light Snow
8:51 AM 28.0 °F 20.8 °F 25.0 °F 88% 29.76 in 1.8 mi North 6.9 mph - 0.03 in Snow Light Snow
9:28 AM 28.9 °F 23.9 °F 25.0 °F 85% 29.68 in 2.0 mi Variable 4.6 mph - 0.01 in Snow Light Snow
9:38 AM 28.9 °F - 25.0 °F 85% 29.67 in 1.8 mi Calm Calm - 0.02 in Snow Light Snow
9:51 AM 28.0 °F 21.7 °F 24.1 °F 85% 29.75 in 1.8 mi North 5.8 mph - 0.02 in Snow Light Snow
10:12 AM 28.0 °F 19.3 °F 23.0 °F 81% 29.67 in 1.5 mi North 9.2 mph - 0.01 in Snow Light Snow
10:21 AM 28.0 °F 20.0 °F 24.1 °F 85% 29.67 in 1.5 mi North 8.1 mph - 0.01 in Snow Light Snow
10:51 AM 27.0 °F 18.7 °F 23.0 °F 85% 29.74 in 1.5 mi North 8.1 mph - 0.02 in Snow Light Snow
11:51 AM 28.0 °F 21.7 °F 24.1 °F 85% 29.72 in 1.2 mi North 5.8 mph - 0.02 in Snow Light Snow
12:39 PM 27.0 °F 16.7 °F 21.9 °F 81% 29.61 in 1.0 mi NW 11.5 mph - 0.01 in Snow Light Snow
12:51 PM 27.0 °F 16.7 °F 21.9 °F 81% 29.68 in 1.0 mi NW 11.5 mph - 0.02 in Snow Light Snow
1:00 PM 27.0 °F 17.3 °F 21.9 °F 81% 29.59 in 0.8 mi NW 10.4 mph - 0.00 in Snow Light Snow
1:19 PM 27.0 °F 20.5 °F 23.0 °F 85% 29.58 in 0.8 mi NW 5.8 mph - 0.01 in Snow Light Snow
1:30 PM 27.0 °F 20.5 °F 23.0 °F 85% 29.58 in 1.2 mi WNW 5.8 mph - 0.02 in Snow Light Snow
1:51 PM 27.0 °F 20.5 °F 23.0 °F 85% 29.65 in 2.0 mi NW 5.8 mph - 0.03 in Snow Light Snow
2:35 PM 28.0 °F 20.8 °F 24.1 °F 85% 29.56 in 1.8 mi NW 6.9 mph - 0.02 in Snow Light Snow
2:44 PM 28.9 °F 21.1 °F 23.0 °F 78% 29.56 in 2.5 mi NW 8.1 mph - 0.03 in Snow Light Snow
2:51 PM 28.9 °F 21.9 °F 23.0 °F 78% 29.62 in 4.0 mi NW 6.9 mph - 0.03 in Snow Light Snow
3:51 PM 28.9 °F 23.9 °F 24.1 °F 82% 29.61 in 3.0 mi NNW 4.6 mph - 0.00 in Snow Light Snow
3:59 PM 28.9 °F 21.9 °F 24.1 °F 82% 29.54 in 2.5 mi NW 6.9 mph - 0.00 in Snow Light Snow
4:09 PM 28.9 °F 25.2 °F 24.1 °F 82% 29.54 in 2.0 mi NNW 3.5 mph - 0.01 in Snow Light Snow
4:18 PM 28.9 °F 21.1 °F 24.1 °F 82% 29.54 in 1.5 mi NW 8.1 mph - 0.01 in Snow Light Snow
4:43 PM 28.0 °F 21.7 °F 24.1 °F 85% 29.55 in 2.0 mi NW 5.8 mph - 0.02 in Snow Light Snow
4:51 PM 28.9 °F 22.8 °F 24.1 °F 82% 29.62 in 2.0 mi NW 5.8 mph - 0.02 in Snow Light Snow
4:59 PM 28.9 °F 22.8 °F 24.1 °F 82% 29.55 in 1.8 mi NW 5.8 mph - 0.00 in Snow Light Snow
5:42 PM 28.9 °F 21.9 °F 24.1 °F 82% 29.56 in 2.0 mi Variable 6.9 mph - 0.01 in Snow Light Snow
5:49 PM 28.4 °F 23.3 °F 24.8 °F 86% 29.56 in 2.0 mi NW 4.6 mph - 0.02 in Snow Light Snow
5:51 PM 28.9 °F 23.9 °F 24.1 °F 82% 29.64 in 2.0 mi North 4.6 mph - 0.02 in Snow Light Snow
5:59 PM 28.0 °F 22.8 °F 24.1 °F 85% 29.57 in 1.5 mi NW 4.6 mph - 0.00 in Snow Light Snow
6:06 PM 28.9 °F 21.9 °F 24.1 °F 82% 29.57 in 1.8 mi WNW 6.9 mph - 0.00 in Snow Light Snow
6:17 PM 28.9 °F 22.8 °F 24.1 °F 82% 29.57 in 2.0 mi NW 5.8 mph - 0.00 in Snow Light Snow
6:31 PM 28.9 °F 25.2 °F 25.0 °F 85% 29.57 in 3.0 mi North 3.5 mph - 0.01 in Snow Light Snow
6:39 PM 28.9 °F - 25.0 °F 85% 29.57 in 2.5 mi Calm Calm - 0.01 in Snow Light Snow
6:51 PM 28.9 °F 25.2 °F 25.0 °F 85% 29.64 in 3.0 mi North 3.5 mph - 0.01 in Snow Light Snow
7:08 PM 28.9 °F 23.9 °F 25.0 °F 85% 29.56 in 2.5 mi Variable 4.6 mph - 0.00 in Snow Light Snow
7:19 PM 28.9 °F 19.8 °F 25.0 °F 85% 29.57 in 4.0 mi NNW 10.4 mph - 0.01 in Snow Light Snow
7:32 PM 28.9 °F 19.2 °F 26.1 °F 89% 29.57 in 9.0 mi West 11.5 mph 16.1 mph 0.01 in   Overcast
7:44 PM 28.9 °F 23.9 °F 26.1 °F 89% 29.58 in 8.0 mi NW 4.6 mph - 0.01 in   Overcast
7:51 PM 28.9 °F - 27.0 °F 92% 29.65 in 8.0 mi Calm Calm - 0.01 in   Overcast
8:43 PM 30.0 °F 20.5 °F 27.0 °F 88% 29.58 in 10.0 mi West 11.5 mph 18.4 mph N/A   Overcast
8:51 PM 30.0 °F 20.0 °F 26.1 °F 85% 29.65 in 10.0 mi WNW 12.7 mph 21.9 mph N/A   Overcast
9:08 PM 30.0 °F 18.7 °F 25.0 °F 82% 29.58 in 10.0 mi NW 16.1 mph 25.3 mph N/A   Overcast
9:51 PM 30.0 °F 22.4 °F 23.0 °F 75% 29.66 in 10.0 mi West 8.1 mph 19.6 mph N/A   Overcast
10:15 PM 30.0 °F 20.5 °F 24.1 °F 79% 29.58 in 10.0 mi West 11.5 mph 17.3 mph N/A   Overcast
10:27 PM 30.0 °F 20.5 °F 24.1 °F 79% 29.58 in 10.0 mi West 11.5 mph 20.7 mph N/A   Overcast
10:51 PM 30.0 °F 23.2 °F 24.1 °F 79% 29.65 in 10.0 mi West 6.9 mph - N/A   Overcast
11:44 PM 30.0 °F 22.4 °F 21.9 °F 72% 29.56 in 10.0 mi West 8.1 mph 20.7 mph N/A   Mostly Cloudy
11:51 PM 30.0 °F 20.5 °F 21.0 °F 69% 29.63 in 10.0 mi West 11.5 mph 21.9 mph N/A   Mostly Cloudy